Flag for Germany Weather past 2 weeks in Offenburg, Baden-Württemberg, Germany

Now
63 °F

Scattered clouds.


Feels Like: 63 °F
Forecast: 44 / 76 °F
Wind: 5 mph from West

Location: Lahr - CAN-AFB

Current Time: Jul 30, 2015 at 10:56:10 AM

Latest Report: Jul 30, 2015 at 10:20 AM


Visibility: N/A

Pressure: 30.04 "Hg

Humidity: 59%

Dew point: 48 °F

Location of OffenburgLocation

Historic Weather in Offenburg — Graph

°F

Offenburg temperature yesterday

Maximum temperature yesterday: 66 °F (at 6:50 PM)
Minimum temperature yesterday: 57 °F (at 1:50 PM)
Average temperature yesterday: 61 °F

Past Weeks' High & Low Weather Summary

 TemperatureHumidityPressure
High99 °F (Jul 17, 2:50 PM)94% (Jul 29, 1:50 PM)30.15 "Hg (Jul 29, 1:50 PM)
Low54 °F (Jul 30, 7:50 AM)21% (Jul 16, 3:50 PM)29.68 "Hg (Jul 24, 5:50 PM)
Average78 °F50%29.94 "Hg
* Reported Jul 15 9:20 AM — Jul 30 9:20 AM, Offenburg, Weather by CustomWeather, © 2015

Note: Actual official high and low records may vary slightly from our data, if they occured in-between our weather recording intervals... More about our weather records

Advertising

Offenburg weather history for previous 24 hours

 ConditionsComfort  
Time TempWeatherWind HumidityBarometerVisibility
9:20 AM
Thu, Jul 30
59 °FSunny.3 mph77%30.04 "Hg10 mi
8:50 AM57 °FPassing clouds.5 mph77%30.01 "HgN/A
8:20 AM55 °FSunny.3 mph82%30.01 "Hg10 mi
7:50 AM54 °FPartly sunny.5 mph88%30.01 "HgN/A
7:50 PM
Wed, Jul 29
66 °FPassing clouds.9 mph56%29.95 "HgN/A
7:20 PM64 °FPassing clouds.10 mph56%29.92 "HgN/A
6:50 PM66 °FPassing clouds.9 mph52%29.92 "HgN/A
6:20 PM64 °FPassing clouds.8 mph64%29.92 "HgN/A
5:50 PM64 °FScattered clouds.7 mph64%29.92 "HgN/A
5:20 PM63 °FPartly sunny.5 mph68%29.92 "HgN/A
4:50 PM61 °FPartly sunny.2 mph77%29.92 "HgN/A
4:20 PM61 °FPartly sunny.3 mph77%29.92 "HgN/A
3:50 PM59 °FBroken clouds.7 mph82%29.92 "HgN/A
3:20 PM59 °FBroken clouds.6 mph88%29.89 "HgN/A
2:50 PM59 °FPartly sunny.7 mph88%29.89 "HgN/A
2:20 PM59 °FDrizzle. Broken clouds.12 mph88%29.89 "Hg4 mi
2:02 PM57 °FDrizzle. Broken clouds.12 mph94%29.89 "Hg4 mi
1:50 PM57 °FDrizzle. Broken clouds.13 mph94%29.86 "Hg2 mi
1:20 PM61 °FDrizzle. Partly sunny.5 mph83%29.86 "HgN/A
12:50 PM59 °FDrizzle. Broken clouds.5 mph88%29.86 "Hg6 mi
12:20 PM59 °FDrizzle. Broken clouds.6 mph88%29.86 "Hg5 mi
11:50 AM59 °FDrizzle. Partly sunny.5 mph88%29.86 "Hg4 mi
11:20 AM61 °FLight rain. Partly sunny.6 mph83%29.86 "Hg4 mi
10:50 AM61 °FPartly sunny.6 mph77%29.83 "HgN/A
10:20 AM61 °FPartly sunny.5 mph77%29.86 "HgN/A
Weather by CustomWeather, © 2015

See weather overviewHow to use our weather pages